DateTimeUTC,F1_A11,F1_S11,BsB_S11,BsG_S11,BsR_S11,BbsB_S11,BbsG_S11,BbsR_S11,BaB_A11,BaG_A11,BaR_A11,Tu_S11,T_S11,Uu_S11,U_S11,P_S11,T1_A11
2021-09-14T09:00:00Z,00000200,20000000,,,,,,,0000.12,-000.07,0000.15,19.0,25.7,03.9,02.6,0658.4,31.1
2021-09-14T09:01:00Z,00000200,20000000,,,,,,,-000.26,-000.27,-000.05,19.0,25.7,03.9,02.6,0658.4,31.1
2021-09-14T09:02:00Z,00000200,20000000,,,,,,,-000.12,-000.06,-000.09,19.0,25.8,03.9,02.6,0658.4,31.1
2021-09-14T09:03:00Z,00000200,60000000,,,,,,,0000.10,-000.05,-000.30,19.0,25.8,03.9,02.6,0658.4,31.1
2021-09-14T09:04:00Z,00000200,40000000,0000.87,0001.25,0001.02,0000.31,0000.14,-000.01,0000.51,0000.45,0000.38,19.1,25.6,04.0,02.7,0659.3,31.1
2021-09-14T09:05:00Z,00000200,00000000,0001.59,0001.26,0000.50,0000.22,0000.43,-000.28,0000.01,0000.30,0000.34,19.1,25.5,04.1,02.8,0659.3,31.1
2021-09-14T09:06:00Z,00000200,00000000,0001.42,0001.14,0000.83,0000.10,0000.35,-000.05,0000.57,0000.36,0000.26,19.1,25.5,04.1,02.8,0659.3,31.1
2021-09-14T09:07:00Z,00000200,00000000,0001.87,0001.50,0000.70,-000.02,0000.30,-000.31,0000.05,-000.08,0000.05,19.1,25.5,04.1,02.8,0659.3,31.1
2021-09-14T09:08:00Z,00000200,00000000,0001.89,0001.29,0000.88,0000.63,0000.09,0000.24,0000.31,0000.50,0000.09,19.1,25.5,04.3,02.9,0659.2,31.1
2021-09-14T09:09:00Z,00000200,00000000,0000.91,0001.41,0000.86,-000.15,0000.38,0000.01,0000.30,0000.83,0000.55,19.0,25.5,04.2,02.8,0659.3,31.1
2021-09-14T09:10:00Z,00000200,00000000,0001.24,0001.23,0000.87,-000.03,0000.20,0000.05,0000.47,-000.07,0000.42,19.0,25.5,04.2,02.8,0659.2,31.1
2021-09-14T09:11:00Z,00000200,00000000,0001.59,0000.86,0000.67,-000.03,0000.20,-000.05,0000.78,0000.39,0000.20,19.0,25.5,04.2,02.8,0659.3,31.1
2021-09-14T09:12:00Z,00000200,00000000,0001.87,0001.01,0000.88,0000.31,-000.03,0000.03,0000.06,0000.55,0000.54,19.1,25.5,04.1,02.8,0659.3,31.1
2021-09-14T09:13:00Z,00000200,00000000,0001.26,0001.30,0000.99,-000.37,0000.31,-000.02,0000.29,0000.28,0000.21,19.2,25.5,04.1,02.8,0659.3,31.1
2021-09-14T09:14:00Z,00000200,00000000,0001.56,0001.08,0000.77,0000.36,0000.38,-000.09,0000.41,0000.40,0000.37,19.2,25.5,04.2,02.8,0659.3,31.1
2021-09-14T09:15:00Z,00000200,00000000,0002.22,0000.97,0000.91,0000.07,0000.22,-000.12,0000.33,-000.03,0000.06,19.2,25.5,04.2,02.9,0659.3,31.1
2021-09-14T09:16:00Z,00000200,00000000,0001.44,0001.11,0001.13,-000.15,0000.07,0000.19,0000.25,0000.07,-000.04,19.2,25.5,04.2,02.8,0659.3,31.1
2021-09-14T09:17:00Z,00000200,00000000,0001.91,0001.26,0000.69,0000.36,0000.14,0000.05,-000.13,0000.12,0000.01,19.2,25.5,04.2,02.8,0659.2,31.1
2021-09-14T09:18:00Z,00000200,00000000,0001.91,0001.35,0000.82,-000.20,0000.06,0000.01,0000.28,0000.25,0000.25,19.1,25.5,04.2,02.8,0659.2,31.1
2021-09-14T09:19:00Z,00000200,00000000,0001.66,0000.86,0000.88,0000.08,0000.24,0000.04,0000.31,0000.09,0000.21,19.1,25.5,04.3,02.9,0659.2,31.1
2021-09-14T09:20:00Z,00000200,00000000,0001.93,0001.06,0000.86,0000.20,0000.23,-000.15,0000.56,0000.51,0000.13,19.1,25.5,04.2,02.8,0659.2,31.1
2021-09-14T09:21:00Z,00000200,00000000,0000.91,0001.11,0000.83,0000.68,0000.23,0000.14,0000.39,0000.24,0000.39,19.1,25.5,04.1,02.8,0659.2,31.1
2021-09-14T09:22:00Z,00000200,00000000,0001.77,0001.01,0000.97,0000.73,0000.43,0000.11,-000.14,0000.25,0000.18,19.1,25.5,04.2,02.8,0659.2,31.1
2021-09-14T09:23:00Z,00000200,00000000,0001.85,0001.22,0000.75,0000.02,0000.28,0000.24,0000.40,0000.09,0000.56,19.0,25.5,04.2,02.8,0659.2,31.1
2021-09-14T09:24:00Z,00000200,00000000,0001.35,0001.29,0000.92,0000.15,0000.17,0000.19,0000.19,0000.42,-000.07,19.0,25.5,04.2,02.9,0659.2,31.1
2021-09-14T09:25:00Z,00000200,00000000,0001.17,0001.53,0000.75,-000.54,0000.25,0000.05,0000.42,0000.75,0000.52,19.0,25.4,04.2,02.9,0659.2,31.1
2021-09-14T09:26:00Z,00000200,00000000,0001.79,0001.19,0001.03,0000.13,0000.15,-000.35,0000.35,0000.37,0000.01,19.0,25.5,04.2,02.8,0659.2,31.1
2021-09-14T09:27:00Z,00000200,00000000,0001.89,0001.04,0001.27,0000.06,0000.23,0000.17,0000.32,-000.15,0000.46,19.1,25.5,04.1,02.8,0659.2,31.1
2021-09-14T09:28:00Z,00000200,00000000,0001.79,0001.08,0000.48,0000.42,0000.27,-000.04,-000.02,0000.37,-000.05,19.1,25.5,04.2,02.9,0659.2,31.1
2021-09-14T09:29:00Z,00000200,00000000,0001.74,0001.37,0000.65,0000.66,0000.20,-000.07,0000.51,0000.05,0000.80,19.1,25.5,04.2,02.8,0659.3,31.1
2021-09-14T09:30:00Z,00000200,00000000,0001.31,0001.22,0000.89,0000.09,0000.24,-000.09,0000.53,0000.71,-000.02,19.1,25.5,04.1,02.8,0659.3,31.1
2021-09-14T09:31:00Z,00000200,00000000,0002.00,0001.01,0000.91,0000.03,0000.23,0000.07,-000.01,0000.09,0000.13,19.1,25.5,04.2,02.9,0659.3,31.1
2021-09-14T09:32:00Z,00000200,00000000,0002.09,0001.13,0000.95,0000.46,0000.36,0000.42,0000.40,0000.33,-000.09,19.1,25.5,04.2,02.8,0659.2,31.1
2021-09-14T09:33:00Z,00000200,00000000,0001.37,0001.39,0000.85,-000.01,0000.47,0000.16,0000.19,0000.09,0000.63,19.1,25.5,04.2,02.9,0659.2,31.1
2021-09-14T09:34:00Z,00000200,00000000,0001.53,0001.12,0000.87,-000.15,-000.07,0000.40,0000.29,0000.17,0000.16,19.1,25.5,04.3,02.9,0659.3,31.1
2021-09-14T09:35:00Z,00000200,00000000,0001.16,0000.93,0000.80,-000.00,-000.01,0000.21,0000.15,0000.47,-000.03,19.1,25.5,04.1,02.8,0659.2,31.1
2021-09-14T09:36:00Z,00000200,00000000,0001.50,0001.35,0000.97,-000.22,-000.06,-000.15,0000.83,0000.21,0000.48,19.1,25.5,04.2,02.8,0659.2,31.1
2021-09-14T09:37:00Z,00000200,00000000,0001.58,0001.26,0000.64,0000.06,0000.37,-000.18,-000.35,0000.30,-000.01,19.1,25.5,04.2,02.9,0659.2,31.1
2021-09-14T09:38:00Z,00000200,00000000,0001.93,0001.35,0001.00,0000.05,0000.31,0000.12,0000.57,0000.45,0000.31,19.0,25.5,04.2,02.9,0659.3,31.1
2021-09-14T09:39:00Z,00000200,00000000,0001.63,0001.06,0000.92,-000.36,0000.41,-000.12,0000.34,0000.23,0000.23,19.0,25.5,04.3,02.9,0659.2,31.1
2021-09-14T09:40:00Z,00000200,00000000,0002.15,0000.83,0001.26,0000.52,0000.38,0000.16,0000.92,0001.01,0001.10,19.0,25.4,04.3,02.9,0659.2,31.1
2021-09-14T09:41:00Z,00000200,00000000,0002.03,0001.18,0000.70,0000.10,0000.02,0000.03,0000.68,0000.46,0000.19,19.1,25.4,04.5,03.1,0659.2,31.1
2021-09-14T09:42:00Z,00000200,00000000,0001.32,0001.37,0000.78,0000.17,0000.18,0000.47,0000.62,0000.65,0000.66,19.1,25.5,04.6,03.2,0659.2,31.1
2021-09-14T09:43:00Z,00000200,00000000,0001.39,0001.15,0000.73,0000.89,0000.23,-000.19,0000.62,0000.43,0000.33,19.2,25.5,04.6,03.1,0659.1,31.1
2021-09-14T09:44:00Z,00000200,00000000,0002.05,0001.05,0001.06,0000.24,0000.12,0000.13,0000.29,0000.33,0000.30,19.2,25.5,04.7,03.2,0659.2,31.1
2021-09-14T09:45:00Z,00000200,00000000,0001.41,0001.18,0000.97,0000.20,0000.39,-000.00,0000.39,0000.16,0000.52,19.3,25.5,04.7,03.2,0659.1,31.1
2021-09-14T09:46:00Z,00000200,00000000,0002.77,0001.20,0000.72,-000.05,0000.27,-000.07,0000.28,-000.03,0000.14,19.3,25.6,04.8,03.3,0659.1,31.1
2021-09-14T09:47:00Z,00000200,00000000,0000.87,0001.09,0000.61,-000.00,0000.23,0000.25,0000.24,0000.71,-000.21,19.3,25.5,04.8,03.3,0659.1,31.1
2021-09-14T09:48:00Z,00000200,00000000,0002.48,0001.01,0001.28,-000.03,0000.27,0000.24,0000.71,0000.19,0000.48,19.3,25.6,04.8,03.3,0659.1,31.1
2021-09-14T09:49:00Z,00000200,00000000,0001.90,0001.42,0000.73,0000.26,0000.16,0000.07,-000.31,0000.16,-000.02,19.2,25.5,04.8,03.3,0659.1,31.1
2021-09-14T09:50:00Z,00000200,00000000,0002.14,0001.19,0000.73,-000.29,-000.00,0000.03,0000.63,0000.27,0000.37,19.2,25.5,04.8,03.3,0659.1,31.1
2021-09-14T09:51:00Z,00000200,00000000,0001.86,0000.93,0000.79,-000.56,0000.20,0000.17,0000.01,0000.33,0000.56,19.2,25.5,04.9,03.3,0659.1,31.1
2021-09-14T09:52:00Z,00000200,00000000,0002.18,0001.15,0000.47,0000.21,0000.13,0000.33,0000.23,0000.07,-000.26,19.2,25.5,04.8,03.3,0659.1,31.1
2021-09-14T09:53:00Z,00000200,00000000,0002.26,0001.20,0001.03,-000.07,0000.11,0000.06,0000.25,0000.13,0000.40,19.2,25.5,04.8,03.3,0659.1,31.1
2021-09-14T09:54:00Z,00000200,00000000,0001.67,0001.25,0000.81,-000.20,0000.36,0000.06,0000.19,0000.44,0000.42,19.2,25.5,04.8,03.3,0659.1,31.1
2021-09-14T09:55:00Z,00000200,00000000,0001.49,0001.20,0000.87,-000.46,0000.29,0000.34,0000.31,-000.06,-000.01,19.2,25.5,04.8,03.2,0659.1,31.1
2021-09-14T09:56:00Z,00000200,00000000,0002.35,0000.99,0000.68,-000.20,0000.52,0000.19,0000.43,0000.60,0000.19,19.2,25.5,04.8,03.2,0659.0,31.1
2021-09-14T09:57:00Z,00000200,40000000,,,,,,,-000.32,-000.53,-000.01,19.2,25.5,04.8,03.3,0659.2,31.1
2021-09-14T09:58:00Z,00000200,60000000,,,,,,,-000.41,0000.23,0000.15,18.9,25.6,04.5,03.0,0658.1,31.1
2021-09-14T09:59:00Z,00000200,20000000,,,,,,,0000.38,0000.11,-000.80,18.9,25.7,04.5,03.0,0658.0,31.1
